| time (UTC) | temp C | wind direction | speed KPH | gust KPH | rain 1hr cm | rain 24hr cm | rain mn cm | humidity % | barometer mb |
| 20260905173049 | 21 | 217 | 0.0 | 4.8 | 0.00 | 0.00 | 0.00 | 47 | 1007.3 |
| 20260905171538 | 20 | 217 | 0.0 | 4.8 | 0.00 | 0.00 | 0.00 | 56 | 1007.3 |
| 20260905170034 | 18 | 217 | 0.0 | 0.0 | 0.00 | 0.00 | 0.00 | 64 | 1007.3 |
| 20260905164530 | 17 | 217 | 0.0 | 0.0 | 0.00 | 0.00 | 0.00 | 71 | 1007.3 |
| 20260905163027 | 16 | 217 | 0.0 | 0.0 | 0.00 | 0.00 | 0.00 | 75 | 1007.3 |
| 20260905161520 | 15 | 217 | 0.0 | 0.0 | 0.00 | 0.00 | 0.00 | 78 | 1007.3 |
| 20260905160018 | 14 | 217 | 0.0 | 0.0 | 0.00 | 0.00 | 0.00 | 78 | 1007.3 |
| 20260905154517 | 13 | 217 | 0.0 | 0.0 | 0.00 | 0.00 | 0.00 | 78 | 1007.1 |
| 20260905153025 | 13 | 217 | 0.0 | 0.0 | 0.00 | 0.00 | 0.00 | 77 | 1007.1 |
| 20260905151514 | 13 | 217 | 0.0 | 0.0 | 0.00 | 0.00 | 0.00 | 77 | 1007.1 |
| 20260905150020 | 12 | 217 | 0.0 | 0.0 | 0.00 | 0.00 | 0.00 | 77 | 1007.0 |
| 20260905144515 | 12 | 217 | 0.0 | 0.0 | 0.00 | 0.00 | 0.00 | 76 | 1007.1 |
| 20260905143015 | 12 | 217 | 0.0 | 0.0 | 0.00 | 0.00 | 0.00 | 75 | 1007.0 |
| 20260905141513 | 12 | 217 | 0.0 | 0.0 | 0.00 | 0.00 | 0.00 | 75 | 1007.0 |
| 20260905140009 | 12 | 217 | 0.0 | 0.0 | 0.00 | 0.00 | 0.00 | 75 | 1006.8 |
| 20260905134518 | 11 | 217 | 0.0 | 0.0 | 0.00 | 0.00 | 0.00 | 75 | 1006.7 |
| 20260905133010 | 11 | 217 | 0.0 | 0.0 | 0.00 | 0.00 | 0.00 | 75 | 1006.6 |
| 20260905131509 | 11 | 217 | 0.0 | 0.0 | 0.00 | 0.00 | 0.00 | 74 | 1006.4 |
| 20260905130006 | 11 | 217 | 0.0 | 0.0 | 0.00 | 0.00 | 0.00 | 73 | 1006.3 |
| 20260905124504 | 12 | 217 | 0.0 | 0.0 | 0.00 | 0.00 | 0.00 | 72 | 1006.5 |
| 20260905123007 | 12 | 217 | 0.0 | 0.0 | 0.00 | 0.00 | 0.00 | 72 | 1006.5 |
| 20260905121501 | 12 | 217 | 0.0 | 0.0 | 0.00 | 0.00 | 0.00 | 72 | 1006.5 |
| 20260905120001 | 12 | 217 | 0.0 | 0.0 | 0.00 | 0.00 | 0.00 | 72 | 1006.6 |
| 20260905114600 | 12 | 217 | 0.0 | 0.0 | 0.00 | 0.00 | 0.00 | 71 | 1006.5 |
| 20260905113106 | 12 | 217 | 0.0 | 1.6 | 0.00 | 0.00 | 0.00 | 71 | 1006.6 |
| 20260905111600 | 12 | 217 | 0.0 | 0.0 | 0.00 | 0.00 | 0.00 | 70 | 1006.7 |
| 20260905110055 | 12 | 217 | 0.0 | 0.0 | 0.00 | 0.00 | 0.00 | 70 | 1006.8 |
| 20260905104555 | 12 | 217 | 0.0 | 1.6 | 0.00 | 0.00 | 0.00 | 70 | 1006.8 |
| 20260905103100 | 12 | 217 | 0.0 | 0.0 | 0.00 | 0.00 | 0.00 | 70 | 1006.8 |
| 20260905101553 | 12 | 217 | 0.0 | 1.6 | 0.00 | 0.00 | 0.00 | 70 | 1006.8 |
| 20260905100100 | 12 | 217 | 0.0 | 0.0 | 0.00 | 0.00 | 0.00 | 70 | 1006.9 |
| 20260905094551 | 12 | 217 | 0.0 | 0.0 | 0.00 | 0.00 | 0.00 | 70 | 1006.8 |
| 20260905093050 | 12 | 217 | 0.0 | 0.0 | 0.00 | 0.00 | 0.00 | 69 | 1006.9 |
| 20260905091554 | 12 | 217 | 0.0 | 0.0 | 0.00 | 0.00 | 0.00 | 69 | 1007.0 |
| 20260905090046 | 12 | 217 | 0.0 | 0.0 | 0.00 | 0.00 | 0.00 | 68 | 1006.9 |
| 20260905084553 | 12 | 217 | 0.0 | 0.0 | 0.00 | 0.00 | 0.00 | 66 | 1006.9 |
| 20260905083040 | 13 | 217 | 0.0 | 0.0 | 0.00 | 0.00 | 0.00 | 66 | 1007.0 |
| 20260905081537 | 13 | 217 | 0.0 | 0.0 | 0.00 | 0.00 | 0.00 | 64 | 1006.9 |
| 20260905074533 | 15 | 217 | 0.0 | 0.0 | 0.00 | 0.00 | 0.00 | 63 | 1007.0 |
| 20260905073032 | 15 | 217 | 0.0 | 0.0 | 0.00 | 0.00 | 0.00 | 62 | 1006.9 |
| 20260905071531 | 15 | 217 | 0.0 | 0.0 | 0.00 | 0.00 | 0.00 | 62 | 1006.9 |
| 20260905070036 | 15 | 217 | 0.0 | 0.0 | 0.00 | 0.00 | 0.00 | 62 | 1006.9 |
| 20260905064526 | 15 | 217 | 0.0 | 0.0 | 0.00 | 0.00 | 0.00 | 60 | 1006.8 |
| 20260905063026 | 15 | 217 | 0.0 | 0.0 | 0.00 | 0.00 | 0.00 | 59 | 1006.7 |
| 20260905061526 | 16 | 217 | 0.0 | 0.0 | 0.00 | 0.00 | 0.00 | 58 | 1006.7 |
| 20260905060041 | 16 | 217 | 0.0 | 0.0 | 0.00 | 0.00 | 0.00 | 57 | 1006.7 |
| 20260905054525 | 16 | 217 | 0.0 | 0.0 | 0.00 | 0.00 | 0.00 | 58 | 1006.7 |
| 20260905053023 | 16 | 217 | 0.0 | 1.6 | 0.00 | 0.00 | 0.00 | 59 | 1006.9 |
| 20260905051525 | 16 | 217 | 0.0 | 0.0 | 0.00 | 0.00 | 0.00 | 60 | 1007.0 |
| 20260905050025 | 16 | 217 | 0.0 | 0.0 | 0.00 | 0.00 | 0.00 | 59 | 1006.9 |
| 20260905044523 | 16 | 217 | 0.0 | 0.0 | 0.00 | 0.00 | 0.00 | 59 | 1007.0 |
| 20260905043018 | 17 | 217 | 0.0 | 0.0 | 0.00 | 0.00 | 0.00 | 59 | 1006.8 |
| 20260905041516 | 17 | 217 | 0.0 | 0.0 | 0.00 | 0.00 | 0.00 | 59 | 1006.7 |
| 20260905040014 | 17 | 217 | 0.0 | 0.0 | 0.00 | 0.00 | 0.00 | 59 | 1006.5 |
| 20260905034516 | 17 | 217 | 0.0 | 0.0 | 0.00 | 0.00 | 0.00 | 59 | 1006.4 |
| 20260905033012 | 17 | 217 | 0.0 | 0.0 | 0.00 | 0.00 | 0.00 | 58 | 1006.2 |
| 20260905031512 | 17 | 217 | 0.0 | 0.0 | 0.00 | 0.00 | 0.00 | 57 | 1005.9 |
| 20260905030014 | 17 | 217 | 0.0 | 1.6 | 0.00 | 0.00 | 0.00 | 56 | 1005.9 |
| 20260905024512 | 18 | 217 | 0.0 | 1.6 | 0.00 | 0.00 | 0.00 | 54 | 1005.8 |
| 20260905023015 | 19 | 217 | 0.0 | 3.2 | 0.00 | 0.00 | 0.00 | 51 | 1005.8 |
| 20260905021520 | 20 | 217 | 0.0 | 0.0 | 0.00 | 0.00 | 0.00 | 48 | 1005.8 |
| 20260905020008 | 21 | 217 | 0.0 | 3.2 | 0.00 | 0.00 | 0.00 | 46 | 1005.7 |
| 20260905014509 | 21 | 217 | 0.0 | 4.8 | 0.00 | 0.00 | 0.00 | 44 | 1005.8 |
| 20260905013007 | 21 | 217 | 0.0 | 6.4 | 0.00 | 0.00 | 0.00 | 43 | 1005.7 |
| 20260905011507 | 22 | 215 | 0.0 | 6.4 | 0.00 | 0.00 | 0.00 | 41 | 1005.5 |
| 20260905010005 | 22 | 228 | 0.0 | 4.8 | 0.00 | 0.00 | 0.00 | 40 | 1005.5 |
| 20260905004504 | 23 | 257 | 0.0 | 11.3 | 0.00 | 0.00 | 0.00 | 39 | 1005.5 |
| 20260905003004 | 23 | 141 | 1.6 | 11.3 | 0.00 | 0.00 | 0.00 | 39 | 1005.5 |
| 20260905001503 | 23 | 237 | 1.6 | 8.0 | 0.00 | 0.00 | 0.00 | 38 | 1005.5 |
| 20260905000002 | 23 | 232 | 0.0 | 4.8 | 0.00 | 0.00 | 0.00 | 38 | 1005.5 |
| 20260904234501 | 24 | 234 | 3.2 | 8.0 | 0.00 | 0.00 | 0.00 | 35 | 1005.5 |
| 20260904233107 | 24 | 56 | 0.0 | 4.8 | 0.00 | 0.00 | 0.00 | 36 | 1005.5 |
| 20260904231557 | 23 | 217 | 1.6 | 9.7 | 0.00 | 0.00 | 0.00 | 36 | 1005.6 |
| 20260904230057 | 23 | 57 | 1.6 | 11.3 | 0.00 | 0.00 | 0.00 | 33 | 1005.7 |
| 20260904224554 | 23 | 257 | 3.2 | 14.5 | 0.00 | 0.00 | 0.00 | 34 | 1005.8 |
| 20260904223054 | 23 | 208 | 3.2 | 6.4 | 0.00 | 0.00 | 0.00 | 35 | 1005.8 |
| 20260904221554 | 23 | 240 | 3.2 | 9.7 | 0.00 | 0.00 | 0.00 | 36 | 1005.9 |
| 20260904220101 | 23 | 175 | 0.0 | 8.0 | 0.00 | 0.00 | 0.00 | 39 | 1005.9 |
| 20260904214545 | 23 | 224 | 1.6 | 8.0 | 0.00 | 0.00 | 0.00 | 45 | 1005.9 |
| 20260904213048 | 22 | 96 | 0.0 | 9.7 | 0.00 | 0.00 | 0.00 | 48 | 1006.0 |
| 20260904211541 | 22 | 250 | 0.0 | 12.9 | 0.00 | 0.00 | 0.00 | 50 | 1006.0 |
| 20260904210039 | 22 | 159 | 0.0 | 4.8 | 0.00 | 0.00 | 0.00 | 50 | 1006.0 |
| 20260904204536 | 21 | 280 | 0.0 | 9.7 | 0.00 | 0.00 | 0.00 | 52 | 1006.0 |
| 20260904203041 | 21 | 118 | 3.2 | 9.7 | 0.00 | 0.00 | 0.00 | 51 | 1006.1 |
| 20260904201536 | 21 | 229 | 0.0 | 8.0 | 0.00 | 0.00 | 0.00 | 54 | 1006.1 |
| 20260904200031 | 20 | 126 | 0.0 | 6.4 | 0.00 | 0.00 | 0.00 | 58 | 1006.0 |
| 20260904194527 | 20 | 193 | 1.6 | 6.4 | 0.00 | 0.00 | 0.00 | 59 | 1006.0 |
| 20260904193026 | 20 | 123 | 0.0 | 8.0 | 0.00 | 0.00 | 0.00 | 62 | 1006.2 |
| 20260904191525 | 19 | 204 | 0.0 | 4.8 | 0.00 | 0.00 | 0.00 | 63 | 1006.3 |
| 20260904190018 | 19 | 212 | 0.0 | 3.2 | 0.00 | 0.00 | 0.00 | 67 | 1006.3 |
| 20260904184515 | 18 | 209 | 0.0 | 6.4 | 0.00 | 0.00 | 0.00 | 69 | 1006.4 |
| 20260904183013 | 18 | 225 | 0.0 | 4.8 | 0.00 | 0.00 | 0.00 | 71 | 1006.4 |
| 20260904181513 | 17 | 225 | 3.2 | 6.4 | 0.00 | 0.00 | 0.00 | 73 | 1006.5 |
| 20260904180011 | 17 | 300 | 0.0 | 4.8 | 0.00 | 0.00 | 0.00 | 75 | 1006.4 |
| 20260904174517 | 17 | 298 | 1.6 | 4.8 | 0.00 | 0.00 | 0.00 | 78 | 1006.4 |